Weather History for Glasgow, MT

Change the Weather History Date:

Monday, May 6, 2013

  Actual Average Record
Temperature  
Mean Temperature 56 °F 52 °F  
Max Temperature 74 °F 65 °F 93 °F (1992)
Min Temperature 38 °F 39 °F 15 °F (1929)
Degree Days  
Heating Degree Days 9 13  
Month to date heating degree days 98 85  
Since 1 July heating degree days 8357 8092  
Cooling Degree Days 0 0  
Month to date cooling degree days 0 0  
Year to date cooling degree days 0 1  
Growing Degree Days 6 (Base 50)    
Moisture  
Dew Point 27 °F    
Average Humidity 38    
Maximum Humidity 59    
Minimum Humidity 17    
Precipitation  
Precipitation 0.00 in 0.05 in 1.66 in (1979)
Month to date precipitation 0.00 0.27  
Year to date precipitation 2.81 2.17  
Snow  
Snow 0.00 in 0.00 in 1.20 in (2002)
Month to date snowfall 0.0 0.3  
Since 1 July snowfall 62.3 33.9  
Snow Depth 0.00 in    
Sea Level Pressure  
Sea Level Pressure 30.00 in    
Wind  
Wind Speed 10 mph (SE)    
Max Wind Speed 17 mph    
Max Gust Speed 23 mph    
Visibility 10 miles    
Events      
T = Trace of Precipitation, MM = Missing Value Source: NWS Daily Summary

Daily Weather History Graph

Daily Weather History Graph

Search for Another Location

Airport:

Trip Planner

Search our weather history database for the weather conditions in past years. The results will help you decide how hot, cold, wet, or windy it might be!

Date:

Astronomy

May. 06, 2013 Rise Set
Actual Time 5:39 AM MDT 8:27 PM MDT
Civil Twilight 5:03 AM MDT 9:03 PM MDT
Nautical Twilight 4:17 AM MDT 9:49 PM MDT
Astronomical Twilight 3:23 AM MDT 10:44 PM MDT
Moon 3:57 AM MDT (5/6) 5:18 PM MDT (5/6)
Length of Visible Light 16h 00m
Length of Day
14h 48m
Waning Crescent, 10% of the Moon is Illuminated
May 6
Waning Crescent
May 9
New
May 17
First Quarter
May 24
Full
May 31
Last Quarter

Hourly Weather History & Observations

Time (MDT) Temp. Windchill Dew Point Humidity Pressure Visibility Wind Dir Wind Speed Gust Speed Precip Events Conditions
12:53 AM 44.1 °F 38.6 °F 26.1 °F 49% 30.08 in 10.0 mi East 10.4 mph - N/A   Clear
1:53 AM 45.0 °F 39.3 °F 27.0 °F 49% 30.07 in 10.0 mi East 11.5 mph - N/A   Clear
2:53 AM 44.1 °F 38.1 °F 27.0 °F 51% 30.07 in 10.0 mi East 11.5 mph - N/A   Clear
3:53 AM 42.1 °F 36.1 °F 27.0 °F 55% 30.07 in 10.0 mi East 10.4 mph - N/A   Clear
4:53 AM 41.0 °F 34.7 °F 26.1 °F 55% 30.06 in 10.0 mi East 10.4 mph - N/A   Clear
5:53 AM 39.0 °F 31.8 °F 26.1 °F 60% 30.07 in 10.0 mi East 11.5 mph - N/A   Clear
6:53 AM 45.0 °F 40.1 °F 28.0 °F 52% 30.06 in 10.0 mi East 9.2 mph - N/A   Clear
7:53 AM 51.1 °F - 28.9 °F 43% 30.06 in 10.0 mi ESE 11.5 mph - N/A   Clear
8:53 AM 55.9 °F - 28.0 °F 34% 30.06 in 10.0 mi SE 9.2 mph - N/A   Clear
9:53 AM 61.0 °F - 28.9 °F 30% 30.06 in 10.0 mi SSE 9.2 mph - N/A   Clear
10:53 AM 66.0 °F - 28.0 °F 24% 30.05 in 10.0 mi SSE 5.8 mph - N/A   Clear
11:53 AM 69.1 °F - 24.1 °F 18% 30.04 in 10.0 mi SSE 10.4 mph 21.9 mph N/A   Clear
12:53 PM 70.0 °F - 24.1 °F 18% 30.02 in 10.0 mi SSW 6.9 mph 16.1 mph N/A   Clear
1:53 PM 71.1 °F - 25.0 °F 18% 29.99 in 10.0 mi SSE 13.8 mph 20.7 mph N/A   Clear
2:53 PM 73.0 °F - 26.1 °F 17% 29.97 in 10.0 mi SSE 13.8 mph 21.9 mph N/A   Clear
3:53 PM 73.0 °F - 26.1 °F 17% 29.95 in 10.0 mi South 12.7 mph 19.6 mph N/A   Clear
4:53 PM 73.9 °F - 26.1 °F 17% 29.93 in 10.0 mi SSE 11.5 mph 17.3 mph N/A   Clear
5:53 PM 73.0 °F - 26.1 °F 17% 29.93 in 10.0 mi SSE 9.2 mph - N/A   Clear
6:53 PM 72.0 °F - 27.0 °F 19% 29.90 in 10.0 mi SSE 10.4 mph - N/A   Clear
7:53 PM 69.1 °F - 27.0 °F 21% 29.90 in 10.0 mi SE 4.6 mph - N/A   Clear
8:53 PM 60.1 °F - 27.0 °F 28% 29.90 in 10.0 mi East 5.8 mph - N/A   Clear
9:53 PM 57.0 °F - 28.0 °F 33% 29.91 in 10.0 mi East 12.7 mph - N/A   Clear
10:53 PM 52.0 °F - 28.9 °F 41% 29.90 in 10.0 mi East 11.5 mph - N/A   Clear
11:53 PM 50.0 °F - 28.9 °F 44% 29.89 in 10.0 mi East 11.5 mph - N/A   Clear